Other Public Products
Issued by NWS Grand Forks, ND

Home | Current Version | Previous Version | Graphics & Text | Print | Product List | Glossary On
Versions: 1 2 3 4 5 6 7 8 9 10 11 12 13 14 15 16 17 18 19 20 21 22 23 24 25 26 27 28 29 30 31 32 33 34 35 36 37 38 39 40 41 42 43 44 45 46 47 48 49 50
000
FPUS83 KFGF 020031
OPUFGF
PRAIRIE TO PINES WEATHER ROUNDUP
NATIONAL WEATHER SERVICE EASTERN NORTH DAKOTA/GRAND FORKS ND
700 PM CDT SAT AUG 01 2015

 **SATELLITE DATA USED TO AUGMENT SKY COVER AT AUTOMATED STATIONS**
 *****  WEATHER ACROSS EASTERN NORTH DAKOTA  *****

CITY           SKY/WX    TMP DP  RH WIND       PRES   REMARKS
GRAND FORKS    MOSUNNY   84  61  45 S8        29.71F
6HR MIN TEMP:  81; 6HR MAX TEMP:  86;

GRAND FORKS AF SUNNY     84  63  49 SW9       29.72F
GRAND CITY NWS NOT AVBL
BUXTON         NOT AVBL
DEVILS LAKE    SUNNY     84  54  34 SE7       29.73F
6HR MIN TEMP:  81; 6HR MAX TEMP:  88;

FARGO          SUNNY     85  63  47 S6        29.73F
6HR MIN TEMP:  81; 6HR MAX TEMP:  89;

WAHPETON ARPT  CLEAR     84  66  54 S7        29.73F
$$

 *****  WEATHER ACROSS CENTRAL AND WESTERN NORTH DAKOTA  *****

CITY           SKY/WX    TMP DP  RH WIND       PRES   REMARKS
JAMESTOWN      SUNNY     85  64  49 S3        29.75F
6HR MIN TEMP:  81; 6HR MAX TEMP:  86;

BISMARCK       SUNNY     90  55  30 SW5       29.78F
6HR MIN TEMP:  84; 6HR MAX TEMP:  92;

MINOT          SUNNY     88  51  28 S12       29.71F
6HR MIN TEMP:  85; 6HR MAX TEMP:  90;

MINOT AFB      SUNNY     88  56  33 S8        29.70F
6HR MIN TEMP:  87; 6HR MAX TEMP:  92;

GARRISON         N/A     82  60  47 SE7       29.75F
6HR MIN TEMP:  80; 6HR MAX TEMP:  85;

WILLISTON      SUNNY     97  34  11 NW21G32   29.73R HX  91
6HR MIN TEMP:  86; 6HR MAX TEMP: 100;

DICKINSON      SUNNY     92  40  16 W13       29.77F
6HR MIN TEMP:  87; 6HR MAX TEMP:  94;

HETTINGER      SUNNY     93  36  13 SW7       29.84F
6HR MIN TEMP:  90; 6HR MAX TEMP:  95;

$$

 *****  OTHER OBSERVATIONS NORTHEAST NORTH DAKOTA  *****

CITY           SKY/WX    TMP DP  RH WIND       PRES   REMARKS
WALHALLA       FAIR      84  61  45 MISG      29.70F
LANGDON        FAIR      82  59  44 SW8       29.75F
CAVALIER       FAIR      82  59  44 SW6       29.70F
GRAFTON        FAIR      84  63  48 W8        29.71F
CANDO          FAIR      82  59  44 SW3       29.74F
FORT TOTTEN      N/A     85  56  36 S6        29.95
ROLLA            N/A     81  64  57 NW3       29.76F
RUGBY          NOT AVBL
 ***** THE ABOVE OBSERVATIONS ARE NON NWS ARE NOT QUALITY
        CONTROLLED AND MAY MIS-REPORT RAIN FOR SNOW...
$$

 *****  OTHER OBSERVATIONS SOUTHEAST NORTH DAKOTA *****

CITY           SKY/WX    TMP DP  RH WIND       PRES   REMARKS
COOPERSTOWN    NOT AVBL
VALLEY CITY    FAIR      84  64  51 CALM      29.75F
OAKES            N/A     86  72  62 NE6       29.74F HX  92
GWINNER        FAIR      88  70  55 NE3       29.75S HX  92
SHEYENNE NWR     N/A     86  69  56 SE2       29.95  HX  90
BUFFALO        NOT AVBL
WYNDMERE         N/A     84  72  65 SE5         N/A
 ***** THE ABOVE OBSERVATIONS ARE NON NWS ARE NOT QUALITY
       CONTROLLED AND MAY MIS-REPORT RAIN FOR SNOW...
$$

  *****  WEATHER ACROSS NORTHERN MINNESOTA  *****

CITY           SKY/WX    TMP DP  RH WIND       PRES   REMARKS
FLAG ISLAND    MOSUNNY   77  54  44 W9        29.69S
WARROAD        MOSUNNY   79  63  57 SW6       29.71F
ROSEAU         MOSUNNY   79  63  57 W7        29.71F
HALLOCK        PTSUNNY   82  61  47 SW7       29.69F
THF RVR FALLS  SUNNY     79  61  53 S7        29.74F
6HR MIN TEMP:  77; 6HR MAX TEMP:  82;

HALSTAD        NOT AVBL
FOSSTON        SUNNY     81  63  54 SW6       29.77F
BAUDETTE       MOSUNNY   78  56  46 W8        29.72F
6HR MIN TEMP:  78; 6HR MAX TEMP:  81;

WASKISH        PTSUNNY   75  61  60 SW6       29.74F
CROOKSTON      SUNNY     82  63  51 SW6       29.74F
$$
  *****  WEATHER ACROSS CENTRAL AND WEST MINNESOTA  *****

CITY           SKY/WX    TMP DP  RH WIND       PRES   REMARKS
BEMIDJI        MOSUNNY   79  57  46 SW7       29.77F
PARK RAPIDS    SUNNY     82  57  42 S8        29.78F
6HR MIN TEMP:  80; 6HR MAX TEMP:  84;

WADENA         MOSUNNY   82  63  51 S7        29.77F
DETROIT LAKES  SUNNY     81  59  47 S8        29.78F
MOORHEAD       SUNNY     82  64  54 SE3       29.74F
FERGUS FALLS   SUNNY     82  70  65 S9        29.73F
ELBOW LAKE     FAIR      82  71  69 SE8       29.75F
MORRIS MN      SUNNY     84  70  61 S7        29.75F
STAPLES        MOSUNNY   81  61  50 S6        29.78F
WHEATON        SUNNY     84  68  58 CALM      29.75F
$$
  *****  WEATHER ELSEWHERE ACROSS MINNESOTA  *****

CITY           SKY/WX    TMP DP  RH WIND       PRES   REMARKS
DULUTH         MOSUNNY   78  54  43 W10       29.79F
6HR MIN TEMP:  77; 6HR MAX TEMP:  82;

INTRNTL FALLS  MOSUNNY   77  54  44 W9        29.71F
6HR MIN TEMP:  77; 6HR MAX TEMP:  81;

ELY            SUNNY     75  48  38 W14       29.75F
CLOQUET        MOSUNNY   77  54  44 SW6       29.79F
BRAINERD       MOSUNNY   79  57  46 S9        29.80F
6HR MIN TEMP:  78; 6HR MAX TEMP:  83;

HIBBING        SUNNY     79  51  37 SW9       29.77F
6HR MIN TEMP:  77; 6HR MAX TEMP:  81;

ALEXANDRIA     SUNNY     82  69  64 S9        29.80F
6HR MIN TEMP:  79; 6HR MAX TEMP:  83;

SAINT CLOUD    SUNNY     82  65  56 S12       29.79F
6HR MIN TEMP:  81; 6HR MAX TEMP:  85;

MINNEAPOLIS    MOSUNNY   85  64  49 SW9       29.80F
6HR MIN TEMP:  82; 6HR MAX TEMP:  86;

$$

  *****  WEATHER ACROSS SOUTH DAKOTA  *****

CITY           SKY/WX    TMP DP  RH WIND       PRES   REMARKS
SIOUX FALLS    MOSUNNY   83  60  45 SW12      29.85F
6HR MIN TEMP:  78; 6HR MAX TEMP:  84;

BROOKINGS      SUNNY     79  63  57 S10       29.84F
WATERTOWN      SUNNY     84  64  50 SW13      29.80F
6HR MIN TEMP:  80; 6HR MAX TEMP:  87; 6HR PCP: TRACE;

HURON          MOSUNNY   88  63  43 W13       29.78F
6HR MIN TEMP:  86; 6HR MAX TEMP:  90;

SISSETON         N/A     87  66  49 SW8       29.73F
ABERDEEN       SUNNY     88  72  58 S12       29.73F HX  94
6HR MIN TEMP:  84; 6HR MAX TEMP:  93;

MITCHELL       SUNNY     87  64  46 S9        29.82F
PIERRE         MOSUNNY   92  60  34 SW14      29.79F HX  91
6HR MIN TEMP:  88; 6HR MAX TEMP:  95;

MOBRIDGE       SUNNY     93  53  25 NW9       29.77F HX  90
RAPID CITY     SUNNY     91  50  24 SW5       29.93F
6HR MIN TEMP:  85; 6HR MAX TEMP:  93;

$$

  *****  SOME WEATHER IN NEARBY STATES *****

CITY           SKY/WX    TMP DP  RH WIND       PRES   REMARKS
GLASGOW MT     SUNNY     93  41  16 N22       29.79S
6HR MIN TEMP:  89; 6HR MAX TEMP:  98;

GREAT FALLS MT SUNNY     96  17   5 NW13      29.91F
6HR MIN TEMP:  90; 6HR MAX TEMP:  97;

CHEYENNE WY    PTSUNNY   84  42  22 E13       30.13F
6HR MIN TEMP:  82; 6HR MAX TEMP:  90;

SCOTTSBLUFF NE PTSUNNY   85  60  42 E17       29.98R
6HR MIN TEMP:  83; 6HR MAX TEMP:  96; 6HR PCP: TRACE;

OMAHA NE       MOSUNNY   84  68  58 S12       29.90F
6HR MIN TEMP:  81; 6HR MAX TEMP:  85;

DES MOINES IA  MOSUNNY   87  70  56 SW8       29.91F HX  92
6HR MIN TEMP:  84; 6HR MAX TEMP:  88;

DAVENPORT IA   CLOUDY    81  70  69 SW6       29.93F
6HR MIN TEMP:  81; 6HR MAX TEMP:  85;

CHICAGO IL     PTSUNNY   83  61  47 SW16      29.89F
6HR MIN TEMP:  82; 6HR MAX TEMP:  87;

EAU CLAIRE WI  SUNNY     80  60  50 SW8       29.82F
6HR MIN TEMP:  80; 6HR MAX TEMP:  84;

LA CROSSE WI   SUNNY     85  63  47 W6        29.85F
6HR MIN TEMP:  80; 6HR MAX TEMP:  87;

$$

  *****  SOME NATIONAL WEATHER *****

CITY           SKY/WX    TMP DP  RH WIND       PRES   REMARKS
LA GUARDIA NY  PTCLDY    84  56  38 NW14G20   29.79R


USA.gov is the U.S. government's official web portal to all federal, state and local government web resources and services.